This is the latest recevied weather packets stored in our database for station/object OE-11140. If no packets are shown the sender has not sent any weather packets the latest 10 day(s).
| Time | Temp. | Humidity | Pressure | Rain* | Wind** | Luminosity | Snow |
|---|---|---|---|---|---|---|---|
| 1787945115 | 20° C | 71% | 1013.1 hPa | 0 mm | - | 0 W/m² | - |
| 1787944289 | 20° C | 71% | 1012.9 hPa | 0 mm | - | 0 W/m² | - |
| 1787943916 | 20.56° C | 70% | 1012.9 hPa | 0 mm | - | 0 W/m² | - |
| 1787943315 | 20.56° C | 70% | 1013.1 hPa | 0 mm | - | 0 W/m² | - |
| 1787942489 | 20.56° C | 70% | 1013.5 hPa | 0 mm | - | 0 W/m² | - |
| 1787941511 | 21.11° C | 68% | 1013.2 hPa | 0 mm | - | 0 W/m² | - |
| 1787940689 | 21.11° C | 68% | 1013.4 hPa | 0 mm | - | 0 W/m² | - |
| 1787940315 | 21.11° C | 67% | 1013.1 hPa | 0 mm | - | 7 W/m² | - |
| 1787939715 | 21.67° C | 67% | 1012.9 hPa | 0 mm | - | 7 W/m² | - |
| 1787938889 | 21.67° C | 66% | 1012.7 hPa | 0 mm | - | 7 W/m² | - |
| 1787938516 | 21.67° C | 67% | 1012.6 hPa | 0 mm | - | 13 W/m² | - |
| 1787937916 | 21.67° C | 65% | 1012.8 hPa | 0 mm | - | 7 W/m² | - |
| 1787937089 | 22.22° C | 65% | 1013.2 hPa | 0 mm | - | 13 W/m² | - |
| 1787936715 | 22.22° C | 66% | 1013.3 hPa | 0 mm | - | 13 W/m² | - |
| 1787936115 | 22.22° C | 66% | 1013.2 hPa | 0 mm | - | 20 W/m² | - |
| 1787935289 | 22.22° C | 65% | 1012.9 hPa | 0 mm | - | 27 W/m² | - |
| 1787934916 | 22.78° C | 65% | 1012.8 hPa | 0 mm | - | 40 W/m² | - |
| 1787934316 | 22.78° C | 65% | 1013.1 hPa | 0 mm | - | 40 W/m² | - |
| 1787933489 | 23.33° C | 63% | 1012.8 hPa | 0 mm | - | 33 W/m² | - |
| 1787933116 | 23.89° C | 61% | 1012.5 hPa | 0 mm | - | 60 W/m² | - |
| 1787932516 | 23.89° C | 60% | 1012.5 hPa | 0 mm | - | 60 W/m² | - |
| 1787931689 | 23.89° C | 59% | 1012.6 hPa | 0 mm | - | 40 W/m² | - |
| 1787931316 | 24.44° C | 57% | 1012.6 hPa | 0 mm | - | 33 W/m² | - |
| 1787930716 | 24.44° C | 56% | 1013.1 hPa | 0 mm | - | 33 W/m² | - |
| 1787929889 | 25° C | 57% | 1012.8 hPa | 0 mm | - | 33 W/m² | - |
* Rain latest hour (hover to see other rain measurements)
** Current wind speed in m/s (hover to see current wind gust speed)